Ketchikan, AK

10:09 PM AKDT on September 22, 2018 (GMT -0800)
Ketchikan International

Weather History for PAKT - November, 2017

Change the Weather History Date:

Sunday, November 26, 2017

  Actual Average Record
Temperature  
Mean Temperature 34 °F -  
Max Temperature 37 °F 42 °F 51 °F (1959)
Min Temperature 32 °F 34 °F 9 °F (2006)
Degree Days  
Heating Degree Days 30    
Moisture  
Dew Point 33 °F    
Average Humidity 93    
Maximum Humidity 100    
Minimum Humidity 87    
Precipitation  
Precipitation 0.07 in - - ()
Sea Level Pressure  
Sea Level Pressure 29.23 in    
Wind  
Wind Speed 9 mph (WNW)    
Max Wind Speed 13 mph    
Max Gust Speed -    
Visibility 9 miles    
Events Rain , Snow    
Averages and records for this station are not official NWS values.
T = Trace of Precipitation, MM = Missing Value Source: NWS Daily Summary

Daily Weather History Graph

Daily Weather History Graph

Search for Another Location

Airport or City:

Astronomy

Nov. 26, 2017 Rise Set
Actual Time 7:42 AM AKST 3:25 PM AKST
Civil Twilight 6:58 AM AKST 4:09 PM AKST
Nautical Twilight 6:12 AM AKST 4:55 PM AKST
Astronomical Twilight 5:28 AM AKST 5:39 PM AKST
Moon 1:04 PM AKST (11/26) 11:28 PM AKST (11/26)
Length of Visible Light 9h 10m
Length of Day
7h 43m
First Quarter, 52% of the Moon is Illuminated
Nov 26
First Quarter
Dec 3
Full
Dec 9
Last Quarter
Dec 17
New
Dec 26
First Quarter

Hourly Weather History & Observations

Time (AKST) Temp. Windchill Dew Point Humidity Pressure Visibility Wind Dir Wind Speed Gust Speed Precip Events Conditions
12:53 AM 37.9 °F 31.5 °F 35.1 °F 89% 29.32 in 10.0 mi WNW 9.2 mph - 0.00 in Rain Light Rain
1:53 AM 37.9 °F 32.1 °F 35.1 °F 89% 29.27 in 10.0 mi WNW 8.1 mph - 0.00 in Rain Light Rain
2:53 AM 37.9 °F 30.5 °F 35.1 °F 89% 29.19 in 10.0 mi WNW 11.5 mph - 0.00 in Rain Light Rain
3:18 AM 37.0 °F 29.3 °F 35.1 °F 93% 29.16 in 10.0 mi WNW 11.5 mph - 0.00 in Rain Light Rain
3:48 AM 37.4 °F 30.3 °F 35.6 °F 93% 29.15 in 10.0 mi WNW 10.4 mph - 0.00 in Rain Light Rain
3:53 AM 37.0 °F 29.3 °F 35.1 °F 93% 29.15 in 10.0 mi WNW 11.5 mph - 0.00 in Rain Light Rain
4:53 AM 37.0 °F 28.9 °F 35.1 °F 93% 29.09 in 10.0 mi NW 12.7 mph - 0.02 in Rain Light Rain
5:40 AM 36.0 °F 28.0 °F 34.0 °F 93% 29.08 in 10.0 mi WNW 11.5 mph - 0.01 in Rain Light Rain
5:53 AM 36.0 °F 28.5 °F 34.0 °F 93% 29.08 in 8.0 mi WNW 10.4 mph - 0.03 in Rain Rain
6:53 AM 35.6 °F 27.5 °F 33.8 °F 93% 29.05 in 6.0 mi NW 11.5 mph - N/A Snow Light Snow
7:53 AM 33.8 °F 25.8 °F 33.8 °F 100% 29.05 in 3.0 mi NW 10.4 mph - N/A Snow Light Snow
8:53 AM 35.6 °F 27.1 °F 33.8 °F 93% 29.07 in 6.0 mi NW 12.7 mph - N/A Rain Light Rain
9:53 AM 35.6 °F 28.0 °F 33.8 °F 93% 29.10 in 5.0 mi NW 10.4 mph - N/A Rain Light Rain
10:53 AM 35.1 °F 27.9 °F 34.0 °F 96% 29.12 in 9.0 mi NW 9.2 mph - 0.02 in Rain Light Rain
11:53 AM 35.6 °F 28.6 °F 33.8 °F 93% 29.14 in 8.0 mi NW 9.2 mph - N/A Rain Light Rain
12:53 PM 35.6 °F 29.9 °F 33.8 °F 93% 29.18 in 10.0 mi WNW 6.9 mph - N/A   Overcast
1:53 PM 35.6 °F 29.2 °F 33.8 °F 93% 29.20 in 10.0 mi NNW 8.1 mph - N/A   Overcast
2:53 PM 35.6 °F 28.6 °F 33.8 °F 93% 29.22 in 10.0 mi NW 9.2 mph - N/A   Mostly Cloudy
3:53 PM 35.6 °F 29.9 °F 32.0 °F 87% 29.25 in 10.0 mi WNW 6.9 mph - N/A   Mostly Cloudy
4:53 PM 34.0 °F 29.8 °F 32.0 °F 92% 29.28 in 10.0 mi NNW 4.6 mph - N/A   Clear
5:53 PM 33.1 °F - 30.9 °F 92% 29.30 in 10.0 mi Calm Calm - N/A   Clear
6:53 PM 32.0 °F - 30.0 °F 92% 29.34 in 10.0 mi Calm Calm - N/A   Clear
7:53 PM 32.0 °F 27.5 °F 30.0 °F 92% 29.37 in 10.0 mi SSE 4.6 mph - N/A   Clear
8:53 PM 32.0 °F 26.4 °F 30.9 °F 96% 29.41 in 10.0 mi South 5.8 mph - N/A   Mostly Cloudy
9:53 PM 34.0 °F 28.0 °F 32.0 °F 92% 29.45 in 10.0 mi South 6.9 mph - N/A   Overcast
10:53 PM 34.0 °F 28.8 °F 33.1 °F 96% 29.47 in 10.0 mi SSE 5.8 mph - N/A   Overcast
11:02 PM 35.1 °F 31.0 °F 33.1 °F 92% 29.47 in 10.0 mi South 4.6 mph - 0.00 in Rain Light Rain
11:53 PM 35.1 °F 30.1 °F 33.1 °F 92% 29.50 in 10.0 mi South 5.8 mph - 0.00 in   Overcast